This is the latest recevied weather packets stored in our database for station/object N5RPG. If no packets are shown the sender has not sent any weather packets the latest 10 day(s).
| Time | Temp. | Humidity | Pressure | Rain* | Wind** | Luminosity | Snow |
|---|---|---|---|---|---|---|---|
| 1777670704 | 15° C | 82% | 1016.1 hPa | 0 mm | - | 136 W/m² | - |
| 1777670402 | 14.44° C | 80% | 1016.2 hPa | 0 mm | - | 113 W/m² | - |
| 1777670099 | 15° C | 82% | 1016.3 hPa | 0 mm | - | 93 W/m² | - |
| 1777669796 | 15° C | 82% | 1016.4 hPa | 0 mm | - | 109 W/m² | - |
| 1777669492 | 15° C | 82% | 1016.3 hPa | 0 mm | - | 107 W/m² | - |
| 1777669189 | 15° C | 82% | 1016.2 hPa | 0 mm | - | 145 W/m² | - |
| 1777668886 | 15° C | 83% | 1016.2 hPa | 0 mm | - | 139 W/m² | - |
| 1777668583 | 15° C | 81% | 1015.8 hPa | 0 mm | - | 147 W/m² | - |
| 1777668279 | 15° C | 80% | 1015.6 hPa | 0 mm | - | 140 W/m² | - |
| 1777667975 | 15° C | 79% | 1015.4 hPa | 0 mm | - | 172 W/m² | - |
| 1777667673 | 15° C | 80% | 1015.3 hPa | 0 mm | - | 238 W/m² | - |
| 1777667370 | 15° C | 80% | 1015 hPa | 0 mm | - | 410 W/m² | - |
| 1777667067 | 15° C | 82% | 1014.6 hPa | 0 mm | - | 499 W/m² | - |
| 1777666763 | 15° C | 83% | 1014.7 hPa | 0 mm | - | 453 W/m² | - |
| 1777666460 | 15° C | 85% | 1014.2 hPa | 0 mm | - | 102 W/m² | - |
| 1777666157 | 15° C | 84% | 1014.3 hPa | 0 mm | - | 395 W/m² | - |
| 1777665854 | 15° C | 84% | 1014.5 hPa | 0 mm | - | 368 W/m² | - |
| 1777665552 | 15.56° C | 86% | 1014.2 hPa | 0 mm | - | 556 W/m² | - |
| 1777665248 | 15° C | 89% | 1014.5 hPa | 0 mm | - | 491 W/m² | - |
| 1777664944 | 14.44° C | 90% | 1014.4 hPa | 0 mm | - | 704 W/m² | - |
| 1777664640 | 14.44° C | 92% | 1014.5 hPa | 0 mm | - | 643 W/m² | - |
| 1777664336 | 14.44° C | 94% | 1014.9 hPa | 0 mm | - | 462 W/m² | - |
| 1777664035 | 13.89° C | 95% | 1014.6 hPa | 0 mm | - | 651 W/m² | - |
| 1777663732 | 13.89° C | 95% | 1014.8 hPa | 0 mm | - | 345 W/m² | - |
| 1777663429 | 13.33° C | 95% | 1014.8 hPa | 0 mm | - | 232 W/m² | - |
* Rain latest hour (hover to see other rain measurements)
** Current wind speed in m/s (hover to see current wind gust speed)